User: anonymous   Login
Location: Unspecified
(0.0000°N, 0.0000°E)
Time: 09:09:49
(UTC+00:00)
Language:

AAUSAT CUBESAT 2 - Orbit

View from above orbital plane
View from above orbital plane
View from above satellite
View from above satellite

Ground track
Ground track

The orbit data is extracted from the following two-line orbital elements,

1 32788U 08021F   19345.76989019 +.00000749 +00000-0 +73654-4 0  9999
2 32788 097.4924 353.6819 0010956 336.1235 023.9477 14.94882942631120
Epoch (UTC): 11 December 2019 18:28:38
Eccentricity: 0.0010956
inclination: 97.4924°
perigee height: 575 km
apogee height: 590 km
right ascension of ascending node: 353.6819°
argument of perigee: 336.1235°
revolutions per day: 14.94882942
mean anomaly at epoch: 23.9477°
orbit number at epoch: 63112

The dashed part of the orbit path shows where the satellite is in the earth's shadow,  

DLR